Regional Weather Roundup
Issued by NWS

Home | Current Version | Previous Version | Graphics & Text | Print | Product List | Glossary On
Versions: 1 2 3 4 5 6 7 8 9 10 11 12 13 14 15 16 17 18 19 20 21 22 23 24 25 26 27 28 29 30 31 32 33 34 35 36 37 38 39 40 41 42 43 44 45 46 47 48 49 50
000
ASUS43 KMKX 231200
RWRWI

WISCONSIN REGIONAL WEATHER ROUNDUP
NATIONAL WEATHER SERVICE MILWAUKEE/SULLIVAN WI
600 AM CST THU NOV 23 2017

NOTE: "FAIR" INDICATES FEW OR NO CLOUDS BELOW 12,000 FEET WITH NO
SIGNIFICANT WEATHER AND/OR OBSTRUCTIONS TO VISIBILITY.

WIZ001-002-006>008-014>016-023>028-231300-
NORTHWEST WISCONSIN

CITY           SKY/WX    TMP DP  RH WIND       PRES   REMARKS
SUPERIOR ARPT  CLOUDY    20  18  93 SW6       29.94S WCI  12
ASHLAND        CLOUDY    21  17  84 SW6       29.92R WCI  13
6HR MIN TEMP:  21; 6HR MAX TEMP:  27;

HAYWARD        CLOUDY    20  17  88 CALM      29.91R
6HR MIN TEMP:  20; 6HR MAX TEMP:  26;

SIREN          CLOUDY    18  15  89 CALM      29.94R
CUMBERLAND     CLOUDY    21  18  86 CALM      29.91S
RICE LAKE      CLOUDY    23  19  85 CALM      29.92F
CHETEK         CLOUDY    19  18  96 CALM      29.91F
LADYSMITH      CLOUDY    27  21  79 CALM      29.92F
EAU CLAIRE     CLOUDY    20  16  84 CALM      29.92S
6HR MIN TEMP:  16; 6HR MAX TEMP:  29;

MENOMONIE      CLOUDY    22  17  81 CALM      29.93S
NEW RICHMOND   CLOUDY    16  12  85 CALM      29.93R
OSCEOLA        CLOUDY    17  14  88 CALM      29.97R
$$

WIZ003>005-009-010-017-018-231300-
NORTH CENTRAL WISCONSIN

CITY           SKY/WX    TMP DP  RH WIND       PRES   REMARKS
MANITOWISH WTR CLOUDY    23  20  89 CALM      29.87F
ARBOR VITAE    CLOUDY    25  21  86 CALM      29.87F
WOODRUFF       CLOUDY    25  21  86 CALM      29.87F
RHINELANDER    CLOUDY    25  21  85 SW6       29.88F WCI  18
6HR MIN TEMP:  22; 6HR MAX TEMP:  25; 6HR PCP: TRACE;

EAGLE RIVER    CLOUDY    24  19  80 SW5       29.87F WCI  18
LAND O LAKES   CLOUDY    24  20  84 SW3       29.88F
PHILLIPS       CLOUDY    25  20  83 S3        29.89F
TOMAHAWK       CLOUDY    25  20  83 CALM      29.91S
MEDFORD        CLOUDY    18  16  92 CALM      29.90S
MERRILL        CLOUDY    19  19  98 CALM      29.93S
$$

WIZ029-030-035-036-043>047-231300-
CENTRAL WISCONSIN

CITY           SKY/WX    TMP DP  RH WIND       PRES   REMARKS
WAUSAU         CLOUDY    23  19  85 CALM      29.91F
6HR MIN TEMP:  22; 6HR MAX TEMP:  26;

MOSINEE        CLEAR     21  18  86 CALM      29.93S
MARSHFIELD     CLOUDY    22  15  75 CALM      29.91S
6HR MIN TEMP:  22; 6HR MAX TEMP:  27;

STEVENS POINT  CLOUDY    20  18  89 CALM      29.94F
WAUPACA        MOCLDY    26  21  81 CALM      29.96S
WAUTOMA        CLOUDY    28  21  75 CALM      29.96S
6HR MIN TEMP:  28; 6HR MAX TEMP:  30;

WISC RAPIDS    CLOUDY    22  16  78 CALM      29.95S
6HR MIN TEMP:  22; 6HR MAX TEMP:  29;

CAMP DOUGLAS   CLOUDY    22  17  78 CALM      29.93F
6HR MIN TEMP:  22; 6HR MAX TEMP:  32;

$$

WIZ011>013-019>022-031-037>040-048>050-231300-
NORTHEAST WISCONSIN

CITY           SKY/WX    TMP DP  RH WIND       PRES   REMARKS
ANTIGO         CLOUDY    24  19  83 SW3       29.91F
SHAWANO        CLOUDY    29  23  77 CALM      29.96S
OCONTO         CLOUDY    29  22  76 SW3       29.96F
STURGEON BAY   CLOUDY    29  24  82 S6        29.97F WCI  23
6HR MIN TEMP:  28; 6HR MAX TEMP:  29;

GREEN BAY      PTCLDY    30  23  75 SW5       29.97F WCI  25
6HR MIN TEMP:  28; 6HR MAX TEMP:  31;

MANITOWOC      CLOUDY    30  21  69 S5        29.99F WCI  25
6HR MIN TEMP:  29; 6HR MAX TEMP:  31;

APPLETON       CLEAR     25  18  74 S5        29.95S WCI  19
CLINTONVILLE   CLOUDY    28  21  74 CALM      29.96S
OSHKOSH        CLOUDY    31  21  66 S7        29.95F WCI  24
6HR MIN TEMP:  28; 6HR MAX TEMP:  31;

$$

WIZ032>034-041-042-053>061-231300-
SOUTHWEST WISCONSIN

CITY           SKY/WX    TMP DP  RH WIND       PRES   REMARKS
LA CROSSE      CLOUDY    31  20  63 S3        29.95S
6HR MIN TEMP:  29; 6HR MAX TEMP:  34;

SPARTA         CLOUDY    23  18  82 E3        29.94F
VIROQUA        CLOUDY    26  20  76 S6        29.92F WCI  20
BOSCOBEL       CLOUDY    28  18  66 CALM      29.96F
6HR MIN TEMP:  28; 6HR MAX TEMP:  35;

PRAIRIE DU CHI CLOUDY    29  17  63 CALM      29.96S
PLATTEVILLE    CLOUDY    28  21  73 S8        29.96F WCI  20
$$

WIZ056-057-062-063-064-067-068-231300-
SOUTH CENTRAL WISCONSIN

CITY           SKY/WX    TMP DP  RH WIND       PRES   REMARKS
REEDSBURG      CLEAR     30  18  59 CALM      29.95S
BARABOO/DELLS  PTCLDY    30  17  57 SW3       29.95S
LONE ROCK      NOT AVBL
MINERAL POINT  CLOUDY    32  21  64 S8        29.95F WCI  25
MADISON        MOCLDY    32  19  58 S9        29.96F WCI  24
6HR MIN TEMP:  31; 6HR MAX TEMP:  32;

MIDDLETON      MOCLDY    32  20  62 S6        29.97F WCI  26
WATERTOWN      CLOUDY    32  20  61 S8        29.97F WCI  25
MONROE         CLEAR     30  21  69 S12       29.97F WCI  21
JANESVILLE     CLOUDY    32  21  64 S6        30.00F WCI  26
$$

WIZ051-052-058>065-066-070>072-231300-
SOUTHEAST WISCONSIN

CITY           SKY/WX    TMP DP  RH WIND       PRES   REMARKS
MILWAUKEE      CLOUDY    34  21  59 S7        30.00F WCI  28
6HR MIN TEMP:  32; 6HR MAX TEMP:  34;

WAUKESHA       CLOUDY    30  18  59 SW8       29.99F WCI  23
MILWAUKEE/TIMM CLOUDY    32  18  55 S6        30.01F WCI  26
RACINE         CLOUDY    33  20  58 S7        30.03F WCI  27
6HR MIN TEMP:  32; 6HR MAX TEMP:  33;

BURLINGTON     CLOUDY    34  26  72 S9        30.01F WCI  27
KENOSHA        CLOUDY    34  19  54 SW10      30.01F WCI  26
6HR MIN TEMP:  32; 6HR MAX TEMP:  34; 6HR PCP: TRACE;

FOND DU LAC    CLOUDY    32  19  58 SW9       29.97F WCI  24
6HR MIN TEMP:  29; 6HR MAX TEMP:  32;

SHEBOYGAN      CLOUDY    30  22  72 S6        29.98F WCI  24
6HR MIN TEMP:  28; 6HR MAX TEMP:  31;

WEST BEND      CLOUDY    32  19  59 SW5       29.98F WCI  27
JUNEAU         MOCLDY    30  19  63 S6        29.98F WCI  24
$$

LSZ147-162-231300-
LAKE SUPERIOR

STATION/POSITION TIME  TEMP    WIND        PRES    WAVE
                       AIR SEA DIR/SP/G            HT/PER
                 (UTC) (F)     (DEG/KT/KT) (MB)    (FT/S)
DEVILS ISLAND    1100   30     260/ 15/ 18 1013.5F
SAXON HARBOR     1140   28     210/  5/  8 1012.9R
$$

LMZ867-665-643>646-231300-
LAKE MICHIGAN

STATION/POSITION TIME  TEMP    WIND        PRES    WAVE
                       AIR SEA DIR/SP/G            HT/PER
                 (UTC) (F)     (DEG/KT/KT) (MB)    (FT/S)
N MID LAKE BUOY  1050   33 47  240/ 16/ 21 1015.7F   4/ 6
NORTHPORT PIER   1140   31     250/  3/  7 1014.6S
KEWAUNEE LAKESHO 1130   31     220/  5/  8 1014.3F
SHEBOYGAN LAKESH 1100   33     210/ 10/ 11 1016.5F
PORT WASHINGTON  1140   34     210/  4/  9 1016.9F
MILWAUKEE LAKESH 1130   33     220/  9/ 11   N/A
S MID LAKE BUOY  1050   37 47  250/ 17/ 19 1017.9F   4/ 5
KENOSHA   LAKESH 1100   33     210/  7/ 11 1016.9
$$

TC  - TEMPERATURE IN CELSIUS
VSB - VISIBILITY IN STATUTE MILES
WCI - WIND CHILL INDEX
HX  - HEAT INDEX





USA.gov is the U.S. government's official web portal to all federal, state and local government web resources and services.